StationID,Date,MaxTemp,MinTemp,Precipitation,Snowfall,SnowDepth
"CA001033456","1996-03-18",59.90,41.00,,,
"CA001033456","1996-03-19",48.20,41.90,,,0.00
"CA001033456","1996-03-20",46.40,40.10,,,0.00
"CA001033456","1996-03-21",50.00,40.10,,,0.00
"CA001033456","1996-03-22",54.50,39.20,0.00,0.00,0.00
"CA001033456","1996-03-23",52.70,35.60,0.00,0.00,0.00
"CA001033456","1996-03-24",50.00,32.90,0.00,0.00,0.00
"CA001033456","1996-03-25",51.80,28.40,0.00,0.00,0.00
"CA001033456","1996-03-26",54.50,31.10,0.00,0.00,0.00
"CA001033456","1996-03-27",53.60,35.60,0.00,0.00,0.00
"CA001033456","1996-03-28",51.80,29.30,0.00,0.00,0.00
"CA001033456","1996-03-29",50.00,33.80,0.00,0.00,0.00
"CA001033456","1996-03-30",44.60,23.00,37.00,0.00,0.00
"CA001033456","1996-03-31",48.20,37.40,565.00,0.00,0.00
"CA001033456","1996-04-01",48.20,43.70,146.00,0.00,0.00
"CA001033456","1996-04-02",43.70,34.70,152.00,20.00,0.00
"CA001033456","1996-04-03",44.60,33.80,283.00,0.00,
"CA001033456","1996-04-04",50.90,40.10,461.00,0.00,0.00
"CA001033456","1996-04-05",53.60,46.40,1294.00,0.00,0.00
"CA001033456","1996-04-06",52.70,48.20,268.00,0.00,0.00
"CA001033456","1996-04-07",,50.00,98.00,0.00,0.00
"CA001033456","1996-04-08",57.20,49.10,174.00,0.00,0.00
"CA001033456","1996-04-09",52.70,43.70,195.00,0.00,0.00
"CA001033456","1996-04-10",50.00,40.10,40.00,0.00,0.00
"CA001033456","1996-04-11",50.00,42.80,587.00,0.00,0.00
"CA001033456","1996-04-12",51.80,35.60,12.00,0.00,0.00
"CA001033456","1996-04-13",53.60,43.70,26.00,0.00,0.00
"CA001033456","1996-04-14",59.00,42.80,732.00,0.00,0.00
"CA001033456","1996-04-15",56.30,45.50,360.00,0.00,0.00
"CA001033456","1996-04-16",53.60,46.40,635.00,0.00,0.00
"CA001033456","1996-04-17",50.00,41.00,402.00,0.00,0.00
"CA001033456","1996-04-18",48.20,39.20,250.00,0.00,0.00
"CA001033456","1996-04-19",48.20,41.00,104.00,0.00,0.00
"CA001033456","1996-04-20",56.30,41.00,32.00,0.00,0.00
"CA001033456","1996-04-21",61.70,38.30,300.00,0.00,0.00
"CA001033456","1996-04-22",50.00,46.40,1074.00,0.00,0.00
"CA001033456","1996-04-23",54.50,44.60,1008.00,0.00,0.00
"CA001033456","1996-04-24",50.00,41.90,410.00,0.00,0.00
"CA001033456","1996-04-25",47.30,41.00,820.00,0.00,0.00
"CA001033456","1996-04-26",47.30,32.90,139.00,0.00,0.00
"CA001033456","1996-04-27",54.50,34.70,6.00,0.00,0.00
"CA001033456","1996-04-28",48.20,39.20,172.00,0.00,0.00
"CA001033456","1996-04-29",56.30,42.80,4.00,0.00,0.00
"CA001033456","1996-04-30",51.80,41.00,0.00,0.00,0.00
"CA001033456","1996-05-01",51.80,34.70,0.00,0.00,0.00
"CA001033456","1996-05-02",51.80,,30.00,0.00,0.00
"CA001033456","1996-05-03",50.00,,40.00,0.00,0.00
"CA001033456","1996-05-04",56.30,,2.00,0.00,0.00
"CA001033456","1996-05-05",55.40,35.60,0.00,0.00,0.00
"CA001033456","1996-05-06",51.80,40.10,36.00,0.00,0.00
"CA001033456","1996-05-07",53.60,40.10,2.00,0.00,0.00
"CA001033456","1996-05-08",52.70,36.50,8.00,0.00,0.00
"CA001033456","1996-05-09",55.40,34.70,4.00,0.00,0.00
"CA001033456","1996-05-10",53.60,39.20,8.00,0.00,0.00
"CA001033456","1996-05-11",50.90,41.00,96.00,0.00,0.00
"CA001033456","1996-05-12",57.20,46.40,272.00,0.00,0.00
"CA001033456","1996-05-13",56.30,50.90,66.00,0.00,0.00
"CA001033456","1996-05-14",54.50,45.50,2.00,0.00,0.00
"CA001033456","1996-05-15",56.30,37.40,134.00,0.00,0.00
"CA001033456","1996-05-16",57.20,42.80,48.00,0.00,0.00
"CA001033456","1996-05-17",53.60,45.50,997.00,0.00,0.00
"CA001033456","1996-05-18",51.80,45.50,640.00,0.00,0.00
"CA001033456","1996-05-19",52.70,46.40,446.00,0.00,0.00
"CA001033456","1996-05-20",50.90,42.80,408.00,0.00,0.00
"CA001033456","1996-05-21",58.10,41.00,14.00,0.00,0.00
"CA001033456","1996-05-22",58.10,44.60,12.00,0.00,0.00
"CA001033456","1996-05-23",62.60,44.60,0.00,0.00,0.00
"CA001033456","1996-05-24",62.60,42.80,10.00,0.00,0.00
"CA001033456","1996-05-25",61.70,49.10,0.00,0.00,0.00
"CA001033456","1996-05-26",66.20,50.90,0.00,0.00,0.00
"CA001033456","1996-05-27",60.80,51.80,60.00,0.00,0.00
"CA001033456","1996-05-28",60.80,44.60,4.00,0.00,0.00
"CA001033456","1996-05-29",59.00,47.30,0.00,0.00,0.00
"CA001033456","1996-05-30",56.30,45.50,0.00,0.00,0.00
"CA001033456","1996-05-31",62.60,41.00,2.00,0.00,0.00
"CA001033456","1996-06-01",67.10,50.00,38.00,0.00,0.00
"CA001033456","1996-06-02",74.30,53.60,22.00,0.00,0.00
"CA001033456","1996-06-03",67.10,52.70,172.00,0.00,0.00
"CA001033456","1996-06-04",64.40,51.80,22.00,0.00,0.00
"CA001033456","1996-06-05",65.30,46.40,36.00,0.00,0.00
"CA001033456","1996-06-06",64.40,51.80,2.00,0.00,0.00
"CA001033456","1996-06-07",60.80,44.60,0.00,0.00,0.00
"CA001033456","1996-06-08",58.10,41.00,218.00,0.00,0.00
"CA001033456","1996-06-09",60.80,41.90,388.00,0.00,0.00
"CA001033456","1996-06-10",55.40,50.00,586.00,0.00,0.00
"CA001033456","1996-06-11",59.00,44.60,0.00,0.00,0.00
"CA001033456","1996-06-12",60.80,42.80,0.00,0.00,0.00
"CA001033456","1996-06-13",60.80,43.70,0.00,0.00,0.00
"CA001033456","1996-06-14",60.80,48.20,0.00,0.00,0.00
"CA001033456","1996-06-15",60.80,44.60,2.00,0.00,0.00
"CA001033456","1996-06-16",59.90,40.10,,0.00,0.00
"CA001033456","1996-06-17",59.90,43.70,,0.00,0.00
"CA001033456","1996-06-18",60.80,45.50,0.00,0.00,0.00
"CA001033456","1996-06-19",64.40,50.00,0.00,0.00,0.00
"CA001033456","1996-06-20",68.00,46.40,0.00,0.00,0.00
"CA001033456","1996-06-21",62.60,50.00,0.00,0.00,0.00
"CA001033456","1996-06-22",59.00,53.60,0.00,0.00,0.00
"CA001033456","1996-06-23",60.80,51.80,100.00,0.00,0.00
"CA001033456","1996-06-24",64.40,50.90,0.00,0.00,0.00
"CA001033456","1996-06-25",62.60,50.00,0.00,0.00,0.00
"CA001033456","1996-06-26",68.00,49.10,0.00,0.00,0.00
"CA001033456","1996-06-27",59.90,53.60,8.00,0.00,0.00
"CA001033456","1996-06-28",60.80,50.90,10.00,0.00,0.00
"CA001033456","1996-06-29",64.40,48.20,0.00,0.00,0.00
"CA001033456","1996-06-30",66.20,52.70,0.00,0.00,0.00
"CA001033456","1996-07-01",69.80,51.80,0.00,0.00,0.00
"CA001033456","1996-07-02",62.60,55.40,35.00,0.00,0.00
"CA001033456","1996-07-03",59.00,50.90,22.00,0.00,0.00
"CA001033456","1996-07-04",64.40,47.30,0.00,0.00,0.00
"CA001033456","1996-07-05",63.50,43.70,0.00,0.00,0.00
"CA001033456","1996-07-06",68.90,46.40,0.00,0.00,0.00
"CA001033456","1996-07-07",76.10,50.90,0.00,0.00,0.00
"CA001033456","1996-07-08",68.00,53.60,0.00,0.00,0.00
"CA001033456","1996-07-09",65.30,56.30,0.00,0.00,0.00
"CA001033456","1996-07-10",68.00,49.10,0.00,0.00,0.00
"CA001033456","1996-07-11",76.10,51.80,0.00,0.00,0.00
"CA001033456","1996-07-12",78.80,55.40,0.00,0.00,0.00
"CA001033456","1996-07-13",86.00,58.10,0.00,0.00,0.00
"CA001033456","1996-07-14",86.00,59.00,0.00,0.00,0.00
"CA001033456","1996-07-15",71.60,57.20,0.00,0.00,0.00
"CA001033456","1996-07-16",62.60,55.40,6.00,0.00,0.00
"CA001033456","1996-07-17",59.90,50.90,50.00,0.00,0.00
"CA001033456","1996-07-18",58.10,50.90,200.00,0.00,0.00
"CA001033456","1996-07-19",59.00,52.70,417.00,0.00,0.00
"CA001033456","1996-07-20",62.60,53.60,6.00,0.00,0.00
"CA001033456","1996-07-21",68.00,55.40,0.00,0.00,0.00
"CA001033456","1996-07-22",77.00,53.60,0.00,0.00,0.00
"CA001033456","1996-07-23",82.40,57.20,0.00,0.00,0.00
"CA001033456","1996-07-24",82.40,57.20,0.00,0.00,0.00
"CA001033456","1996-07-25",81.50,57.20,0.00,0.00,0.00
"CA001033456","1996-07-26",82.40,59.00,0.00,0.00,0.00
"CA001033456","1996-07-27",80.60,59.00,0.00,0.00,0.00
"CA001033456","1996-07-28",75.20,59.90,0.00,0.00,0.00
"CA001033456","1996-07-29",72.50,57.20,0.00,0.00,0.00
"CA001033456","1996-07-30",68.00,57.20,0.00,0.00,0.00
"CA001033456","1996-07-31",68.90,50.00,0.00,0.00,0.00
"CA001033456","1996-08-01",60.80,52.70,20.00,0.00,0.00
"CA001033456","1996-08-02",64.40,51.80,0.00,0.00,0.00
"CA001033456","1996-08-03",62.60,56.30,20.00,0.00,0.00
"CA001033456","1996-08-04",62.60,54.50,4.00,0.00,0.00
"CA001033456","1996-08-05",70.70,48.20,0.00,0.00,0.00
"CA001033456","1996-08-06",68.00,51.80,0.00,0.00,0.00
"CA001033456","1996-08-07",77.00,50.90,0.00,0.00,0.00
"CA001033456","1996-08-08",78.80,50.90,0.00,0.00,0.00
"CA001033456","1996-08-09",75.20,50.00,0.00,0.00,0.00
"CA001033456","1996-08-10",80.60,51.80,0.00,0.00,0.00
"CA001033456","1996-08-11",63.50,55.40,256.00,0.00,0.00
"CA001033456","1996-08-12",71.60,49.10,0.00,0.00,0.00
"CA001033456","1996-08-13",79.70,53.60,0.00,0.00,0.00
"CA001033456","1996-08-14",69.80,55.40,0.00,0.00,0.00
"CA001033456","1996-08-15",65.30,56.30,102.00,0.00,0.00
"CA001033456","1996-08-16",63.50,58.10,10.00,0.00,0.00
"CA001033456","1996-08-17",66.20,53.60,8.00,0.00,0.00
"CA001033456","1996-08-18",62.60,51.80,90.00,0.00,0.00
"CA001033456","1996-08-19",60.80,53.60,232.00,0.00,0.00
"CA001033456","1996-08-20",67.10,51.80,0.00,0.00,0.00
"CA001033456","1996-08-21",66.20,49.10,0.00,0.00,0.00
"CA001033456","1996-08-22",73.40,50.00,0.00,0.00,0.00
"CA001033456","1996-08-23",77.90,50.00,0.00,0.00,0.00
"CA001033456","1996-08-24",80.60,54.50,0.00,0.00,0.00
"CA001033456","1996-08-25",83.30,57.20,0.00,0.00,0.00
"CA001033456","1996-08-26",72.50,56.30,0.00,0.00,0.00
"CA001033456","1996-08-27",68.00,59.00,12.00,0.00,0.00
"CA001033456","1996-08-28",75.20,59.00,2.00,0.00,0.00
"CA001033456","1996-08-29",80.60,57.20,184.00,0.00,0.00
"CA001033456","1996-08-30",65.30,59.00,308.00,0.00,0.00
"CA001033456","1996-08-31",68.00,55.40,0.00,0.00,0.00
"CA001033456","1996-09-01",65.30,52.70,0.00,0.00,0.00
"CA001033456","1996-09-02",66.20,53.60,60.00,0.00,0.00
"CA001033456","1996-09-03",62.60,53.60,8.00,0.00,0.00
"CA001033456","1996-09-04",55.40,47.30,24.00,0.00,0.00
"CA001033456","1996-09-05",62.60,50.00,16.00,0.00,0.00
"CA001033456","1996-09-06",57.20,48.20,600.00,0.00,0.00
"CA001033456","1996-09-07",60.80,52.70,480.00,0.00,0.00
"CA001033456","1996-09-08",63.50,56.30,0.00,0.00,0.00
"CA001033456","1996-09-09",65.30,51.80,0.00,0.00,0.00
"CA001033456","1996-09-10",69.80,48.20,0.00,0.00,0.00
"CA001033456","1996-09-11",68.90,49.10,0.00,0.00,0.00
"CA001033456","1996-09-12",64.40,52.70,10.00,0.00,0.00
"CA001033456","1996-09-13",60.80,54.50,776.00,0.00,0.00
"CA001033456","1996-09-14",62.60,50.00,260.00,0.00,0.00
"CA001033456","1996-09-15",60.80,48.20,86.00,0.00,0.00
"CA001033456","1996-09-16",59.00,46.40,14.00,0.00,0.00
"CA001033456","1996-09-17",62.60,46.40,2.00,0.00,0.00
"CA001033456","1996-09-18",55.40,47.30,81.00,0.00,0.00
"CA001033456","1996-09-19",62.60,52.70,15.00,0.00,0.00
"CA001033456","1996-09-20",55.40,50.00,18.00,0.00,0.00
"CA001033456","1996-09-21",53.60,45.50,40.00,0.00,0.00
"CA001033456","1996-09-22",59.00,40.10,0.00,0.00,0.00
"CA001033456","1996-09-23",62.60,39.20,0.00,0.00,0.00
"CA001033456","1996-09-24",64.40,44.60,0.00,0.00,0.00
"CA001033456","1996-09-25",64.40,42.80,0.00,0.00,0.00
"CA001033456","1996-09-26",68.00,44.60,0.00,0.00,0.00
"CA001033456","1996-09-27",66.20,44.60,0.00,0.00,0.00
"CA001033456","1996-09-28",65.30,45.50,0.00,0.00,0.00
"CA001033456","1996-09-29",60.80,51.80,0.00,0.00,0.00
"CA001033456","1996-09-30",59.00,53.60,0.00,0.00,0.00
"CA001033456","1996-10-01",60.80,42.80,0.00,0.00,0.00
"CA001033456","1996-10-02",59.00,46.40,681.00,0.00,0.00
"CA001033456","1996-10-03",60.80,50.00,1138.00,0.00,0.00
"CA001033456","1996-10-04",59.00,54.50,0.00,0.00,0.00
"CA001033456","1996-10-05",59.90,50.00,8.00,0.00,0.00
"CA001033456","1996-10-06",60.80,46.40,0.00,0.00,0.00
"CA001033456","1996-10-07",64.40,50.00,0.00,0.00,0.00
"CA001033456","1996-10-08",68.00,48.20,0.00,0.00,0.00
"CA001033456","1996-10-09",70.70,51.80,146.00,0.00,0.00
"CA001033456","1996-10-10",60.80,52.70,185.00,0.00,0.00
"CA001033456","1996-10-11",57.20,50.00,26.00,0.00,0.00
"CA001033456","1996-10-12",56.30,46.40,1047.00,0.00,0.00
"CA001033456","1996-10-13",53.60,49.10,559.00,0.00,0.00
"CA001033456","1996-10-14",52.70,46.40,294.00,0.00,0.00
"CA001033456","1996-10-15",51.80,40.10,14.00,0.00,0.00
"CA001033456","1996-10-16",50.00,33.80,26.00,0.00,0.00
"CA001033456","1996-10-17",51.80,32.00,943.00,220.00,0.00
"CA001033456","1996-10-18",47.30,32.90,54.00,0.00,0.00
"CA001033456","1996-10-19",50.90,34.70,7.00,0.00,0.00
"CA001033456","1996-10-20",48.20,32.00,536.00,0.00,0.00
"CA001033456","1996-10-21",49.10,41.00,670.00,0.00,0.00
"CA001033456","1996-10-22",50.90,43.70,192.00,0.00,0.00
"CA001033456","1996-10-23",48.20,41.90,982.00,0.00,0.00
"CA001033456","1996-10-24",45.50,39.20,138.00,0.00,0.00
"CA001033456","1996-10-25",50.00,35.60,0.00,0.00,0.00
"CA001033456","1996-10-26",50.00,34.70,32.00,0.00,0.00
"CA001033456","1996-10-27",50.90,35.60,564.00,0.00,0.00
"CA001033456","1996-10-28",51.80,47.30,108.00,0.00,0.00
"CA001033456","1996-10-29",50.00,37.40,0.00,0.00,0.00
"CA001033456","1996-10-30",49.10,32.90,0.00,0.00,0.00
"CA001033456","1996-10-31",49.10,32.00,0.00,0.00,0.00
"CA001033456","1996-11-01",50.00,32.90,5.00,0.00,0.00
"CA001033456","1996-11-02",46.40,35.60,198.00,0.00,0.00
"CA001033456","1996-11-03",46.40,38.30,230.00,0.00,0.00
"CA001033456","1996-11-04",46.40,34.70,8.00,0.00,0.00
"CA001033456","1996-11-05",43.70,35.60,527.00,0.00,0.00
"CA001033456","1996-11-06",47.30,39.20,12.00,0.00,0.00
"CA001033456","1996-11-07",52.70,32.00,1080.00,186.00,0.00
"CA001033456","1996-11-08",54.50,32.00,496.00,0.00,0.00
"CA001033456","1996-11-09",55.40,48.20,0.00,0.00,0.00
"CA001033456","1996-11-10",53.60,46.40,2.00,0.00,0.00
"CA001033456","1996-11-11",56.30,46.40,1035.00,0.00,0.00
"CA001033456","1996-11-12",57.20,50.00,575.00,0.00,0.00
"CA001033456","1996-11-13",50.00,46.40,8.00,0.00,0.00
"CA001033456","1996-11-14",49.10,43.70,2.00,0.00,0.00
"CA001033456","1996-11-15",46.40,35.60,164.00,0.00,0.00
"CA001033456","1996-11-16",40.10,32.00,132.00,64.00,0.00
"CA001033456","1996-11-17",37.40,31.10,40.00,38.00,
"CA001033456","1996-11-18",36.50,32.00,7.00,0.00,
"CA001033456","1996-11-19",37.40,30.20,2.00,0.00,
"CA001033456","1996-11-20",34.70,31.10,0.00,0.00,
"CA001033456","1996-11-21",35.60,30.20,0.00,0.00,
"CA001033456","1996-11-22",33.80,25.70,0.00,0.00,
"CA001033456","1996-11-23",33.80,25.70,108.00,108.00,
"CA001033456","1996-11-24",36.50,31.10,264.00,0.00,
"CA001033456","1996-11-25",39.20,33.80,283.00,0.00,
"CA001033456","1996-11-26",40.10,35.60,634.00,0.00,0.00
"CA001033456","1996-11-27",43.70,37.40,164.00,0.00,0.00
"CA001033456","1996-11-28",40.10,35.60,0.00,0.00,0.00
"CA001033456","1996-11-29",42.80,33.80,545.00,0.00,0.00
"CA001033456","1996-11-30",53.60,38.30,550.00,0.00,0.00
"CA001033456","1996-12-01",41.00,35.60,190.00,90.00,0.00
"CA001033456","1996-12-02",34.70,32.00,208.00,96.00,90.00
"CA001033456","1996-12-03",33.80,28.40,208.00,86.00,
"CA001033456","1996-12-04",35.60,32.00,398.00,0.00,170.00
"CA001033456","1996-12-05",36.50,32.90,279.00,22.00,160.00
"CA001033456","1996-12-06",36.50,32.00,299.00,10.00,190.00
"CA001033456","1996-12-07",36.50,32.00,148.00,0.00,190.00
"CA001033456","1996-12-08",37.40,32.90,245.00,10.00,190.00
"CA001033456","1996-12-09",38.30,32.00,242.00,0.00,190.00
"CA001033456","1996-12-10",38.30,33.80,230.00,10.00,170.00
"CA001033456","1996-12-11",36.50,32.00,260.00,4.00,180.00
"CA001033456","1996-12-12",38.30,32.00,118.00,0.00,180.00
"CA001033456","1996-12-13",41.00,33.80,42.00,0.00,
"CA001033456","1996-12-14",37.40,31.10,300.00,0.00,170.00
"CA001033456","1996-12-15",39.20,33.80,126.00,0.00,140.00
"CA001033456","1996-12-16",34.70,30.20,0.00,0.00,
"CA001033456","1996-12-17",37.40,28.40,6.00,0.00,130.00
"CA001033456","1996-12-18",38.30,32.00,,,
"CA001033456","1996-12-19",35.60,29.30,390.00,6.00,140.00
"CA001033456","1996-12-20",37.40,32.00,82.00,0.00,
"CA001033456","1996-12-21",38.30,32.90,5.00,0.00,
"CA001033456","1996-12-22",35.60,32.00,143.00,139.00,130.00
"CA001033456","1996-12-23",34.70,14.00,,,
"CA001033456","1996-12-24",35.60,31.10,8.00,0.00,280.00
"CA001033456","1996-12-25",30.20,26.60,0.00,0.00,
"CA001033456","1996-12-26",31.10,23.00,0.00,0.00,150.00
"CA001033456","1996-12-27",29.30,22.10,36.00,36.00,
"CA001033456","1996-12-28",26.60,19.40,174.00,174.00,320.00
"CA001033456","1996-12-29",34.70,22.10,,140.00,
"CA001033456","1996-12-30",50.00,28.40,1064.00,26.00,460.00
"CA001033456","1996-12-31",50.00,33.80,,0.00,360.00
"CA001033456","1997-01-01",50.90,37.40,1210.00,0.00,0.00
"CA001033456","1997-01-02",44.60,36.50,280.00,0.00,0.00
"CA001033456","1997-01-03",36.50,32.90,148.00,10.00,0.00
"CA001033456","1997-01-04",39.20,32.00,20.00,0.00,
"CA001033456","1997-01-05",42.80,32.00,319.00,91.00,
"CA001033456","1997-01-06",42.80,32.00,398.00,0.00,
"CA001033456","1997-01-07",41.00,34.70,52.00,0.00,0.00
"CA001033456","1997-01-08",41.00,36.50,306.00,0.00,0.00
"CA001033456","1997-01-09",41.90,37.40,2.00,0.00,0.00
"CA001033456","1997-01-10",43.70,35.60,0.00,0.00,0.00
"CA001033456","1997-01-11",41.00,37.40,0.00,0.00,0.00
"CA001033456","1997-01-12",38.30,32.00,0.00,0.00,0.00
"CA001033456","1997-01-13",33.80,30.20,0.00,0.00,0.00
"CA001033456","1997-01-14",32.90,28.40,0.00,0.00,0.00
"CA001033456","1997-01-15",35.60,27.50,0.00,0.00,0.00
"CA001033456","1997-01-16",42.80,28.40,1102.00,0.00,0.00
"CA001033456","1997-01-17",48.20,34.70,386.00,0.00,0.00
"CA001033456","1997-01-18",42.80,35.60,1616.00,0.00,0.00
"CA001033456","1997-01-19",44.60,38.30,794.00,0.00,0.00
"CA001033456","1997-01-20",44.60,41.00,450.00,0.00,0.00
"CA001033456","1997-01-21",42.80,38.30,49.00,0.00,0.00
"CA001033456","1997-01-22",41.00,36.50,66.00,0.00,0.00
"CA001033456","1997-01-23",37.40,31.10,10.00,0.00,0.00
"CA001033456","1997-01-24",37.40,28.40,0.00,0.00,0.00
"CA001033456","1997-01-25",33.80,26.60,0.00,0.00,0.00
"CA001033456","1997-01-26",34.70,23.00,0.00,0.00,0.00
"CA001033456","1997-01-27",33.80,26.60,562.00,96.00,0.00
"CA001033456","1997-01-28",50.00,32.00,596.00,0.00,
"CA001033456","1997-01-29",50.00,33.80,2400.00,0.00,0.00
"CA001033456","1997-01-30",47.30,40.10,73.00,0.00,0.00
"CA001033456","1997-01-31",44.60,35.60,56.00,0.00,0.00
"CA001033456","1997-02-01",43.70,38.30,132.00,0.00,0.00
"CA001033456","1997-02-02",41.00,34.70,47.00,0.00,0.00
"CA001033456","1997-02-03",41.90,36.50,0.00,0.00,0.00
"CA001033456","1997-02-04",41.00,31.10,0.00,0.00,0.00
"CA001033456","1997-02-05",42.80,29.30,0.00,0.00,0.00
"CA001033456","1997-02-06",42.80,31.10,13.00,0.00,0.00
"CA001033456","1997-02-07",44.60,35.60,0.00,0.00,0.00
"CA001033456","1997-02-08",43.70,33.80,0.00,0.00,0.00
"CA001033456","1997-02-09",44.60,31.10,0.00,0.00,0.00
"CA001033456","1997-02-10",45.50,33.80,62.00,0.00,0.00
"CA001033456","1997-02-11",36.50,32.00,394.00,4.00,0.00
"CA001033456","1997-02-12",43.70,32.00,184.00,0.00,0.00
"CA001033456","1997-02-13",41.90,35.60,350.00,0.00,0.00
"CA001033456","1997-02-14",49.10,39.20,334.00,0.00,0.00
"CA001033456","1997-02-15",50.00,42.80,163.00,0.00,0.00
"CA001033456","1997-02-16",53.60,39.20,374.00,0.00,0.00
"CA001033456","1997-02-17",47.30,39.20,115.00,0.00,0.00
"CA001033456","1997-02-18",41.90,32.00,510.00,36.00,0.00
"CA001033456","1997-02-19",39.20,32.00,247.00,0.00,40.00
"CA001033456","1997-02-20",43.70,34.70,4.00,0.00,0.00
"CA001033456","1997-02-21",48.20,32.90,0.00,0.00,0.00
"CA001033456","1997-02-22",50.90,31.10,2.00,0.00,0.00
"CA001033456","1997-02-23",50.00,32.00,0.00,0.00,0.00
"CA001033456","1997-02-24",50.00,31.10,2.00,0.00,0.00
"CA001033456","1997-02-25",47.30,33.80,0.00,0.00,0.00
"CA001033456","1997-02-26",48.20,37.40,0.00,0.00,0.00
"CA001033456","1997-02-27",50.00,30.20,0.00,0.00,0.00
"CA001033456","1997-02-28",42.80,29.30,4.00,0.00,0.00
"CA001033456","1997-03-01",43.70,32.00,1051.00,10.00,200.00
"CA001033456","1997-03-02",42.80,32.90,376.00,0.00,150.00
"CA001033456","1997-03-03",41.00,33.80,46.00,0.00,0.00
"CA001033456","1997-03-04",40.10,28.40,74.00,0.00,0.00
"CA001033456","1997-03-05",37.40,32.90,606.00,0.00,0.00
"CA001033456","1997-03-06",39.20,32.00,525.00,0.00,0.00
"CA001033456","1997-03-07",44.60,32.00,24.00,0.00,0.00
"CA001033456","1997-03-08",50.90,33.80,739.00,0.00,0.00
"CA001033456","1997-03-09",42.80,32.00,276.00,0.00,0.00
"CA001033456","1997-03-10",46.40,34.70,22.00,0.00,0.00
"CA001033456","1997-03-11",36.50,32.00,206.00,10.00,0.00
"CA001033456","1997-03-12",41.90,32.00,101.00,0.00,0.00
"CA001033456","1997-03-13",45.50,32.00,20.00,0.00,0.00
"CA001033456","1997-03-14",47.30,30.20,31.00,0.00,0.00
"CA001033456","1997-03-15",35.60,32.00,108.00,60.00,0.00
"CA001033456","1997-03-16",44.60,24.80,250.00,0.00,
"CA001033456","1997-03-17",51.80,33.80,4399.00,0.00,0.00
"CA001033456","1997-03-18",53.60,42.80,1913.00,0.00,0.00
"CA001033456","1997-03-19",50.00,44.60,85.00,0.00,0.00
"CA001033456","1997-03-20",50.00,41.00,245.00,0.00,0.00
"CA001033456","1997-03-21",40.10,32.00,302.00,0.00,0.00
"CA001033456","1997-03-22",50.00,33.80,54.00,0.00,0.00
"CA001033456","1997-03-23",50.00,39.20,2.00,0.00,0.00
"CA001033456","1997-03-24",51.80,37.40,32.00,0.00,0.00
"CA001033456","1997-03-25",50.00,42.80,568.00,0.00,0.00
"CA001033456","1997-03-26",42.80,39.20,154.00,0.00,0.00
"CA001033456","1997-03-27",46.40,33.80,447.00,40.00,0.00
"CA001033456","1997-03-28",45.50,31.10,855.00,0.00,
"CA001033456","1997-03-29",45.50,36.50,1006.00,0.00,0.00
"CA001033456","1997-03-30",47.30,35.60,511.00,0.00,0.00
"CA001033456","1997-03-31",46.40,35.60,11.00,0.00,0.00
"CA001033456","1997-04-01",53.60,31.10,0.00,0.00,0.00
"CA001033456","1997-04-02",50.00,32.00,199.00,0.00,0.00
"CA001033456","1997-04-03",51.80,36.50,0.00,0.00,0.00
"CA001033456","1997-04-04",57.20,30.20,0.00,0.00,0.00
"CA001033456","1997-04-05",59.00,30.20,0.00,0.00,0.00
"CA001033456","1997-04-06",63.50,32.00,0.00,0.00,0.00
"CA001033456","1997-04-07",55.40,32.00,2.00,0.00,0.00
"CA001033456","1997-04-08",54.50,41.00,0.00,0.00,0.00
"CA001033456","1997-04-09",53.60,33.80,0.00,0.00,0.00
"CA001033456","1997-04-10",55.40,37.40,0.00,0.00,0.00
"CA001033456","1997-04-11",59.90,34.70,0.00,0.00,0.00
"CA001033456","1997-04-12",54.50,41.00,490.00,0.00,0.00
"CA001033456","1997-04-13",48.20,36.50,392.00,0.00,0.00
"CA001033456","1997-04-14",50.00,39.20,625.00,0.00,0.00
"CA001033456","1997-04-15",53.60,43.70,2244.00,0.00,0.00
"CA001033456","1997-04-16",53.60,45.50,460.00,0.00,0.00
"CA001033456","1997-04-17",48.20,41.00,64.00,0.00,0.00
"CA001033456","1997-04-18",53.60,35.60,4.00,0.00,0.00
"CA001033456","1997-04-19",50.00,37.40,454.00,0.00,0.00
"CA001033456","1997-04-20",50.00,40.10,52.00,0.00,0.00
"CA001033456","1997-04-21",61.70,35.60,4.00,0.00,0.00
"CA001033456","1997-04-22",63.50,36.50,350.00,0.00,0.00
"CA001033456","1997-04-23",53.60,43.70,20.00,0.00,0.00
"CA001033456","1997-04-24",54.50,36.50,20.00,0.00,0.00
"CA001033456","1997-04-25",51.80,44.60,122.00,0.00,0.00
"CA001033456","1997-04-26",55.40,47.30,342.00,0.00,0.00
"CA001033456","1997-04-27",50.00,,204.00,0.00,0.00
"CA001033456","1997-04-28",50.00,42.80,210.00,0.00,0.00
"CA001033456","1997-04-29",50.00,40.10,227.00,0.00,0.00
"CA001033456","1997-04-30",50.00,41.00,52.00,0.00,0.00
"CA001033456","1997-05-01",53.60,37.40,0.00,0.00,0.00
"CA001033456","1997-05-02",59.90,35.60,390.00,0.00,0.00
"CA001033456","1997-05-03",51.80,42.80,482.00,0.00,0.00
"CA001033456","1997-05-04",54.50,42.80,1614.00,0.00,0.00
"CA001033456","1997-05-05",54.50,44.60,607.00,0.00,0.00
"CA001033456","1997-05-06",49.10,43.70,175.00,0.00,0.00
"CA001033456","1997-05-07",59.00,42.80,0.00,0.00,0.00
"CA001033456","1997-05-08",64.40,40.10,0.00,0.00,0.00
"CA001033456","1997-05-09",59.00,45.50,0.00,0.00,0.00
"CA001033456","1997-05-10",74.30,42.80,0.00,0.00,0.00
"CA001033456","1997-05-11",84.20,42.80,0.00,0.00,0.00
"CA001033456","1997-05-12",71.60,48.20,0.00,0.00,0.00
"CA001033456","1997-05-13",71.60,52.70,0.00,0.00,0.00
"CA001033456","1997-05-14",69.80,50.00,0.00,0.00,0.00
"CA001033456","1997-05-15",70.70,47.30,0.00,0.00,0.00
"CA001033456","1997-05-16",68.00,48.20,0.00,0.00,0.00
"CA001033456","1997-05-17",69.80,47.30,0.00,0.00,0.00
"CA001033456","1997-05-18",77.90,44.60,0.00,0.00,0.00
"CA001033456","1997-05-19",61.70,44.60,0.00,0.00,0.00
"CA001033456","1997-05-20",59.90,44.60,450.00,0.00,0.00